Regional Weather Roundup
Issued by NWS

Home | Current Version | Previous Version | Graphics & Text | Print | Product List | Glossary On
Versions: 1 2 3 4 5 6 7 8 9 10 11 12 13 14 15 16 17 18 19 20 21 22 23 24 25 26 27 28 29 30 31 32 33 34 35 36 37 38 39 40 41 42 43 44 45 46 47 48 49 50
000
ASUS43 KBIS 210010
RWRND

NORTH DAKOTA REGIONAL WEATHER ROUNDUP
NATIONAL WEATHER SERVICE BISMARCK ND
700 PM CDT THU JUL 20 2017

NOTE: "FAIR" INDICATES FEW OR NO CLOUDS BELOW 12,000 FEET WITH NO
SIGNIFICANT WEATHER AND/OR OBSTRUCTIONS TO VISIBILITY.


NDZ001>003-009>011-017-210100-
NORTHWEST NORTH DAKOTA

CITY           SKY/WX    TMP DP  RH WIND       PRES   REMARKS
WILLISTON      MOSUNNY   87  48  25 NE25G37   29.82F
6HR MIN TEMP:  74; 6HR MAX TEMP:  93; 6HR PCP:  0.09;

MINOT          CLOUDY    83  64  52 E9        29.86S
MINOT AFB      MOSUNNY   82  65  56 NE9       29.85F
$$

NDZ018>021-031>035-040>046-210100-
SOUTHWEST NORTH DAKOTA

CITY           SKY/WX    TMP DP  RH WIND       PRES   REMARKS
BISMARCK       CLOUDY    87  59  38 SE13      29.87R
6HR MIN TEMP:  87; 6HR MAX TEMP:  97;

DICKINSON      CLOUDY    70  64  81 SE23G29   29.79S
GARRISON         N/A     80  61  52 SE10      29.86F
6HR MIN TEMP:  77; 6HR MAX TEMP:  96;

HETTINGER ARPT TSTM      71  59  65 NW26G58   29.89R
$$

NDZ004>008-012>016-024-026-027-054-210100-
NORTHEAST NORTH DAKOTA

CITY           SKY/WX    TMP DP  RH WIND       PRES   REMARKS
GRAND FORKS    PTSUNNY   83  64  52 CALM      29.93S
GRND FRKS AFB  PTSUNNY   81  64  57 E3        29.94S
DEVILS LAKE    LGT RAIN  75  66  73 E13       29.92F
$$

NDZ022-023-025-028>030-036>039-047>053-210100-
SOUTHEAST NORTH DAKOTA

CITY           SKY/WX    TMP DP  RH WIND       PRES   REMARKS
FARGO          SUNNY     86  66  51 S5        29.91F
6HR MIN TEMP:  84; 6HR MAX TEMP:  89;

JAMESTOWN      SUNNY     84  66  54 SE7       29.90F
$$





USA.gov is the U.S. government's official web portal to all federal, state and local government web resources and services.